Regional Weather Roundup
Issued by NWS

Home | Current Version | Previous Version | Graphics & Text | Print | Product List | Glossary Off
Versions: 1 2 3 4 5 6 7 8 9 10 11 12 13 14 15 16 17 18 19 20 21 22 23 24 25 26 27 28 29 30 31 32 33 34 35 36 37 38 39 40 41 42 43 44 45 46 47 48 49 50

000
ASUS43 KTOP 272259
RWRKS

WEATHER ROUNDUP FOR KANSAS
NATIONAL WEATHER SERVICE GOODLAND KS
500 PM CST SAT DEC 27 2014

NOTE:  "FAIR" INDICATES FEW OR NO CLOUDS BELOW 12,000 FEET WITH NO
SIGNIFICANT WEATHER AND/OR OBSTRUCTIONS TO VISIBILITY.

KSZ001>006-013>018-027>032-041>047-280000-
NORTHWEST KANSAS

CITY           SKY/WX    TMP DP  RH WIND       PRES   REMARKS
GOODLAND       CLEAR     25  14  63 W7        30.17S
HAYS           CLEAR     28  12  50 NW10      30.25S WCI  19
HILL CITY      CLEAR     27  16  63 W6        30.24F
RUSSELL        CLEAR     28  18  66 W7        30.25S
$$

KSZ061>065-074>080-084>089-280000-
SOUTHWEST KANSAS

CITY           SKY/WX    TMP DP  RH WIND       PRES   REMARKS
DODGE CITY     CLEAR     32  17  54 NW9       30.24S
ELKHART          N/A     34  16  48 NW3         N/A
GARDEN CITY    CLEAR     31  17  56 W10       30.22S WCI  22
GREAT BEND     CLEAR     30  18  59 NW8       30.28R
LIBERAL        CLEAR     34  18  51 NW7       30.26R
$$

KSZ066>073-081>083-090>101-280000-
SOUTHEAST KANSAS

CITY           SKY/WX    TMP DP  RH WIND       PRES   REMARKS
CHANUTE        PTCLDY    34  20  56 NW10      30.25F WCI  26
COFFEYVILLE    PTCLDY    35  21  56 NW9       30.26F
HUTCHINSON     PTCLDY    32  16  51 NW9       30.27S
MEDICINE LODGE   N/A     35  17  47 NW7       30.27S
NEWTON         PTCLDY    30  16  55 NW7       30.28S
PARSONS        PTCLDY    35  21  56 NW8       30.27S
WICHITA INTL   PTCLDY    33  17  51 NW9       30.28R
WICHITA JABRA  PTCLDY    31  17  56 NW10      30.28R WCI  22
WINFIELD       PTCLDY    34  19  54 NW10      30.28F WCI  26
$$

KSZ007>012-019>026-033>040-048>060-102>105-280000-
NORTHEAST KANSAS

CITY           SKY/WX    TMP DP  RH WIND       PRES   REMARKS
CONCORDIA      CLEAR     28  16  60 NW7       30.26S
EMPORIA        CLEAR     30  17  58 NW9       30.26S
LAWRENCE       CLEAR     31  19  61 NW8       30.27R
MANHATTAN      CLEAR     30  18  60 W3        30.28S
OLATHE IND     PTCLDY    29  20  69 NW6       30.25S
OLATHE EXE     PTCLDY    31  18  58 NW8       30.23F
SALINA         CLEAR     31  17  56 NW8       30.29S
TOPEKA BILLARD CLEAR     32  18  56 NW9       30.28R
TOPEKA FORBES  CLEAR     31  18  58 NW12      30.25S WCI  22
$$



USA.gov is the U.S. government's official web portal to all federal, state and local government web resources and services.